STARLINK-2560 (48402 NORAD) Tracking and Keplerian Element Data

This shows tracking and keplerian element data for the satellite.

Feedback or suggestion? Click here.




ElementValue
Catalog48402
NameSTARLINK-2560
Epoch Orbit364
Epoch Day214.91667824
Epoch Year2021
RAAN322.4323
Inclination53.0508
Eccentricity0.0001245
Argument of Perigee72.2067
Mean Anonmoly346.8325
Mean Motion15.10808707
Decay Rate-0.01103693
L11 48402U 21038BB 21214.91667824 -.01103693 00000-0 -71114-1 0 9995
L22 48402 53.0508 322.4323 0001245 72.2067 346.8325 15.10808707 3647

Live tracking and technical data element details for STARLINK-2560 (NORAD 48402). STARLINK-2560 can be tracked NOW for your location showing map with azimuth and elevation plus other details from your city location.

Track the satellite on the map from your city or location and see movement details for azimuth, elevation, latitude, longitude, range, height, and movement on the map or in text.







IsCatalogInMostPopularTable: catalog: 48402, numindb: 33
Update: records affected: 1



GetName: 48402 STARLINK-2560

Hit Count: updated at: Tue, 03 Aug 2021 23:42:12 GMT